FREGAT DEB, 45971

Orbit data source: Space-Track

FREGAT DEB, 45971 is space debris in LEO originally from a launch on Mon, 18 Jul 2011 UTC launched from the Tyuratam Missile And Space Complex (TTMTR). Debris objects in space refer to the collection of defunct objects orbiting the Earth. Examples of debris include non-operational satellites, rocket bodies, and fragments generated from explosions, collisions, or faulty payload assembly.

Loading next visibility...
Identifier
45971, 2011-037GC
Orbit
LEO
Last TLE update
9 hours ago
Origin
Manufacturer
Lavochkin
Mission
Spacecraft
Bus & Motor
Unknown
Mass
Unknown
Launch date (UTC)
2011-07-18 (14 years ago)
Launch vehicle
Unknown
Launch site
Tyuratam Missile And Space Complex (TTMTR)
Object type
Payload
Rocket body
Debris
Shape & HBR
Unknown
Radar Cross Section
Small (<0.1 m²)

Expand to show TLE details & history

TLE from 9 hours ago
0 FREGAT DEB
1 45971U 11037GC  25181.85265088  .00030247  00000-0  29358-2 0  9992
2 45971  51.4599 111.6800 1200862  10.5227 351.8549 12.88095977223103
Epoch: 2025-06-30T20:27Z
TLE epoch observation values (Epoch: 2025-06-30T20:27:49.036Z)
Latitude
0.00002°
Longitude
-114.43081°
Altitude
398.619 km
Speed
8.114 km/s
True Right ascension
07h 26m 43s
True Declination
0° 00' 00"
Sunlit
Object was in daylight at epoch
Visualization orbit readout
Latitude
-31.83241°
Longitude
-145.15741°
Altitude
703.811 km
Speed
7.798 km/s
Apparent Right ascension
05h 19m 13s
Apparent Declination
-35° 29' 49"
Sunlit
Object is in daylight
Visualization observer readout
Local Sidereal Time
17:13:34
Azimuth
345.384° N
Elevation
-85.442°
Doppler factor
1
Orbital elements
Apogee altitude
2,232.765 km
Perigee altitude
386.388 km
Semi-major axis
7,687.713 km
Eccentricity
0.12009
Inclination
51.4599°
RAAN
111.68°
Arg. of periapsis
10.5227°
True anomaly
Unknown
Mean anomaly
351.8549°
Eccentric anomaly
Unknown
Mean motion
3.21994 °/min
Orbital period
111.8 mins
BSTAR
0.0029358
Loading maneuver chart data...
Loading SW <> Apogee altitude chart data...
Loading historical data...
Loading historical data...
Loading historical data...
Loading historical data...
Loading historical data...
Loading historical data...
Loading historical data...

FREGAT DEB Visibility forecast

Observer location: undefined°, undefined°

Span
Click to sort rows by Start time (UTC) header in descending order
Start Az.
Max El. time (UTC)
Max El. Az.
Max El.
End time (UTC)
End Az.
19 mins2025-07-01 06:16:55.319Z294.202° NW2025-07-01 06:24:55.319Z226.405° WSW35.298°2025-07-01 06:35:55.319Z162.424° S
7 mins2025-07-01 22:44:55.319Z259.48° W2025-07-01 22:46:55.319Z331.06° NNW40.534°2025-07-01 22:51:55.319Z49.145° ENE
9 mins2025-07-02 00:41:55.319Z311.928° NW2025-07-02 00:44:55.319Z0.775° NNE25.482°2025-07-02 00:50:55.319Z55.93° ENE
13 mins2025-07-02 02:38:55.319Z321.782° NNW2025-07-02 02:42:55.319Z15.867° NNE32.979°2025-07-02 02:51:55.319Z88.245° E
17 mins2025-07-02 04:34:55.319Z306.729° NW2025-07-02 04:40:55.319Z303.566° NW44.943°2025-07-02 04:51:55.319Z129.881° SE
|